Weather in Verkhniye Peski

Russia / Kurgan Oblast     56°10′53″N   62°36′04″E
temp.,
°C
wind,
m/s
gust,
m/s
humid.,
%
clouds,
%
prec.,
mm/h
press.,
hPa
HPBL,
m
18 may, wed
wed1823:00+10wsw33774 0.2 100329
02:00+8ssw228213 0.0 100317
05:00+8sw228593 0.0 100322
08:00+12w347614 0.3 1004345
11:00+15sw4555100 0.4 10031396
14:00+17sw5642100 0.0 10031947
17:00+18ssw684387 0.0 10012176
20:00+14ssw4864100 0.1 1001344
19 may, thu
thu1923:00+9sw2687100 0.5 1001200
02:00+9wsw3590100 0.6 999354
05:00+9wsw4891100 0.6 999343
08:00+10w71077100 0.1 1000591
11:00+13w896482 0.4 10011361
14:00+12w9116665 0.4 10031217
17:00+10w9117192 0.4 10051060
20:00+8w511685 0.0 1006933
20 may, fri
fri2023:00+6wsw388199 0.0 1007160
02:00+7sw4117876 0.0 1006492
05:00+6wsw612885 0.1 1006521
08:00+7wsw796985 0.0 10081101
11:00+11w6750100 0.0 10081547
14:00+12wsw6745100 0.0 10081635
17:00+12sw4447100 0.0 10071424
20:00+10s1161100 0.0 100510
21 may, sat
sat2123:00+8e2363100 0.0 100364
02:00+6ne3789100 1.6 1000588
05:00+6ne51091100 4.6 997924
08:00+5nne71293100 3.8 996812
11:00+4n71396100 6.6 996729
14:00+5n5996100 0.6 996862
17:00+5nnw4794100 1.0 9961000
20:00+6nnw378797 0.3 996668
22 may, sun
sun2223:00+5w369094 0.6 996137
02:00+3wsw359554 0.1 996117
05:00+4w5892100 0.1 997514
08:00+3wsw6994100 0.2 997721
11:00+5wsw598169 0.3 998935
14:00+10sw795481 0.6 9981997
17:00+9sw6758100 1.2 9981488
20:00+7sw477590 0.7 998277